This is the latest recevied weather packets stored in our database for station/object KC3SOZ. If no packets are shown the sender has not sent any weather packets the latest 10 day(s).
| Time | Temp. | Humidity | Pressure | Rain* | Wind** | Luminosity | Snow |
|---|---|---|---|---|---|---|---|
| 1777418405 | 11.67° C | 77% | 1019 hPa | 0 mm | - | 11 W/m² | - |
| 1777418101 | 11.67° C | 77% | 1018.6 hPa | 0 mm | - | 13 W/m² | - |
| 1777417797 | 11.67° C | 78% | 1019 hPa | 0 mm | - | 12 W/m² | - |
| 1777417492 | 11.67° C | 76% | 1018.8 hPa | 0 mm | - | 12 W/m² | - |
| 1777417189 | 11.67° C | 76% | 1018.7 hPa | 0 mm | - | 13 W/m² | - |
| 1777416885 | 11.67° C | 75% | 1018.9 hPa | 0 mm | - | 12 W/m² | - |
| 1777416580 | 11.67° C | 75% | 1018.9 hPa | 0 mm | - | 14 W/m² | - |
| 1777416277 | 12.22° C | 76% | 1018.8 hPa | 0 mm | - | 14 W/m² | - |
| 1777415976 | 12.22° C | 76% | 1018.9 hPa | 0 mm | - | 17 W/m² | - |
| 1777415672 | 12.22° C | 75% | 1019 hPa | 0 mm | - | 21 W/m² | - |
| 1777415368 | 12.22° C | 75% | 1018.9 hPa | 0 mm | - | 23 W/m² | - |
| 1777415062 | 12.22° C | 75% | 1018.9 hPa | 0 mm | - | 31 W/m² | - |
| 1777414761 | 12.22° C | 75% | 1018.9 hPa | 0 mm | - | 34 W/m² | - |
| 1777414458 | 12.22° C | 75% | 1018.9 hPa | 0 mm | - | 28 W/m² | - |
| 1777414157 | 12.22° C | 74% | 1019 hPa | 0 mm | - | 29 W/m² | - |
| 1777413853 | 12.22° C | 73% | 1018.9 hPa | 0 mm | - | 35 W/m² | - |
| 1777413549 | 12.22° C | 75% | 1018.7 hPa | 0 mm | - | 44 W/m² | - |
| 1777413245 | 12.22° C | 73% | 1018.6 hPa | 0 mm | - | 56 W/m² | - |
| 1777412940 | 12.22° C | 72% | 1018.7 hPa | 0 mm | - | 62 W/m² | - |
| 1777412639 | 12.22° C | 73% | 1018.7 hPa | 0 mm | - | 73 W/m² | - |
| 1777412336 | 12.22° C | 74% | 1018.6 hPa | 0 mm | - | 79 W/m² | - |
| 1777412032 | 12.22° C | 74% | 1018.9 hPa | 0 mm | - | 69 W/m² | - |
| 1777411731 | 12.22° C | 74% | 1018.8 hPa | 0 mm | - | 66 W/m² | - |
| 1777411426 | 12.22° C | 75% | 1018.7 hPa | 0 mm | - | 71 W/m² | - |
| 1777411121 | 12.22° C | 76% | 1019 hPa | 0 mm | - | 71 W/m² | - |
* Rain latest hour (hover to see other rain measurements)
** Current wind speed in m/s (hover to see current wind gust speed)